Date String (YYYY-MM-DD hh:mm:ss) UTC,Instrument flags,Ambient pressure (hPa),Sample flow (lpm),Bypass flow (lpm),Sample temperature (°C),Ambient temperature (°C),ASC tube jacket temperature (°C),LED temperature (°C),Box temperature (°C),Sample RH (%),Span deviation,Mass concentration (μg/m³),Mass concentration (μg/m³),Mass concentration (μg/m³)
DateTimeUTC,F1_M11,P_M11,Q1_M11,Q2_M11,T1_M11,T2_M11,T3_M11,T4_M11,T5_M11,U1_M11,ZSPAN_M11,X0_M11,X2_M11,X1_M11
2022-05-25 22:00:00,,0824.2,5.01,0.00,30.0,29.2,00.0,38.8,31.9,12.2,0000.0,0005.24,0002.70,0002.27
2022-05-25 22:01:00,,0824.2,5.01,0.00,30.0,29.2,00.0,38.8,31.9,12.3,0000.0,0005.29,0002.72,0002.28
2022-05-25 22:02:00,,0824.2,5.01,0.00,30.0,29.2,00.0,38.8,31.9,12.8,0000.0,0005.36,0002.73,0002.29
2022-05-25 22:03:00,,0824.1,4.99,0.00,30.0,29.2,00.0,38.9,31.9,12.7,0000.0,0005.39,0002.75,0002.30
2022-05-25 22:04:00,,0824.1,5.00,0.00,30.0,29.2,00.0,38.9,31.9,11.7,0000.0,0004.49,0002.77,0002.30
2022-05-25 22:05:00,,0824.1,5.01,0.00,30.0,29.2,00.0,38.9,31.9,11.3,0000.0,0004.02,0002.72,0002.30
2022-05-25 22:06:00,,0824.1,5.01,0.00,30.1,29.1,00.0,38.9,31.9,11.3,0000.0,0003.90,0002.73,0002.30
2022-05-25 22:07:00,,0824.1,4.99,0.00,30.0,28.1,00.0,38.8,31.6,11.4,0000.0,0003.74,0002.69,0002.29
2022-05-25 22:08:00,,0824.2,5.01,0.00,29.9,27.3,00.0,38.7,31.4,11.9,0000.0,0003.63,0002.65,0002.29
2022-05-25 22:09:00,,0824.1,4.99,0.00,29.8,27.1,00.0,38.6,31.3,12.3,0000.0,0003.66,0002.66,0002.29
2022-05-25 22:10:00,,0824.1,5.01,0.00,29.7,27.2,00.0,38.6,31.2,12.5,0000.0,0004.02,0002.69,0002.29
2022-05-25 22:11:00,,0824.1,4.98,0.00,29.6,27.3,00.0,38.6,31.2,12.1,0000.0,0004.38,0002.68,0002.27
2022-05-25 22:12:00,,0824.1,5.00,0.00,29.6,27.5,00.0,38.6,31.2,12.1,0000.0,0004.40,0002.67,0002.26
2022-05-25 22:13:00,,0824.1,5.01,0.00,29.6,27.6,00.0,38.6,31.2,11.8,0000.0,0004.40,0002.67,0002.24
2022-05-25 22:14:00,,0824.2,5.01,0.00,29.6,27.8,00.0,38.6,31.3,12.2,0000.0,0004.40,0002.66,0002.24
2022-05-25 22:15:00,,0824.1,4.99,0.00,29.5,27.9,00.0,38.5,31.3,11.2,0000.0,0004.46,0002.67,0002.24
2022-05-25 22:16:00,,0824.1,4.99,0.00,29.5,28.1,00.0,38.5,31.3,11.5,0000.0,0004.45,0002.70,0002.25
2022-05-25 22:17:00,,0824.1,5.01,0.00,29.6,28.2,00.0,38.5,31.4,11.7,0000.0,0004.48,0002.72,0002.25
2022-05-25 22:18:00,,0824.1,5.00,0.00,29.6,28.3,00.0,38.5,31.4,12.0,0000.0,0004.58,0002.77,0002.26
2022-05-25 22:19:00,,0824.1,5.00,0.00,29.6,28.4,00.0,38.5,31.4,12.5,0000.0,0004.62,0002.79,0002.26
2022-05-25 22:20:00,,0824.1,5.00,0.00,29.6,28.5,00.0,38.5,31.4,13.0,0000.0,0004.70,0002.82,0002.25
2022-05-25 22:21:00,,0824.1,5.01,0.00,29.6,28.5,00.0,38.5,31.4,12.7,0000.0,0004.37,0002.80,0002.24
2022-05-25 22:22:00,,0824.1,5.00,0.00,29.6,28.6,00.0,38.5,31.5,12.3,0000.0,0003.99,0002.79,0002.24
2022-05-25 22:23:00,,0824.1,5.00,0.00,29.6,28.6,00.0,38.5,31.4,12.4,0000.0,0003.92,0002.77,0002.24
2022-05-25 22:24:00,,0824.0,5.00,0.00,29.6,28.7,00.0,38.5,31.5,12.9,0000.0,0003.87,0002.75,0002.24
2022-05-25 22:25:00,,0824.1,5.00,0.00,29.6,28.7,00.0,38.5,31.5,12.5,0000.0,0004.14,0002.80,0002.26
2022-05-25 22:26:00,,0824.1,5.00,0.00,29.7,28.7,00.0,38.6,31.5,12.3,0000.0,0004.18,0002.81,0002.26
2022-05-25 22:27:00,,0824.1,5.00,0.00,29.7,28.7,00.0,38.6,31.5,11.7,0000.0,0004.14,0002.79,0002.25
2022-05-25 22:28:00,,0824.1,4.99,0.00,29.7,28.8,00.0,38.6,31.5,11.8,0000.0,0004.20,0002.81,0002.25
2022-05-25 22:29:00,,0824.1,5.00,0.00,29.7,28.8,00.0,38.6,31.5,11.6,0000.0,0004.17,0002.79,0002.26
2022-05-25 22:30:00,,0824.1,5.01,0.00,29.7,28.8,00.0,38.6,31.6,11.7,0000.0,0004.18,0002.79,0002.27
2022-05-25 22:31:00,,0824.1,5.00,0.00,29.7,28.9,00.0,38.6,31.6,12.1,0000.0,0004.09,0002.76,0002.27
2022-05-25 22:32:00,,0824.1,5.00,0.00,29.7,28.9,00.0,38.6,31.6,11.4,0000.0,0004.08,0002.75,0002.27
2022-05-25 22:33:00,,0824.0,5.00,0.00,29.7,28.9,00.0,38.6,31.6,11.5,0000.0,0004.02,0002.74,0002.28
2022-05-25 22:34:00,,0824.1,5.01,0.00,29.8,28.9,00.0,38.6,31.6,11.4,0000.0,0004.02,0002.74,0002.28
2022-05-25 22:35:00,,0824.1,5.01,0.00,29.8,28.9,00.0,38.7,31.7,11.6,0000.0,0003.91,0002.72,0002.28
2022-05-25 22:36:00,,0824.0,4.99,0.00,29.8,29.0,00.0,38.7,31.7,11.5,0000.0,0003.68,0002.66,0002.27
2022-05-25 22:37:00,,0824.1,5.00,0.00,29.8,29.0,00.0,38.7,31.7,11.5,0000.0,0003.49,0002.60,0002.26
2022-05-25 22:38:00,,0824.1,5.00,0.00,29.8,29.0,00.0,38.7,31.7,11.6,0000.0,0003.50,0002.60,0002.27
2022-05-25 22:39:00,,0824.1,5.00,0.00,29.9,29.1,00.0,38.7,31.7,11.4,0000.0,0003.54,0002.56,0002.26
2022-05-25 22:40:00,,0824.0,5.00,0.00,29.9,28.7,00.0,38.7,31.7,12.2,0000.0,0003.85,0002.58,0002.26
2022-05-25 22:41:00,,0824.0,4.99,0.00,29.8,27.9,00.0,38.6,31.5,12.3,0000.0,0003.97,0002.62,0002.26
2022-05-25 22:42:00,,0824.0,5.01,0.00,29.8,27.7,00.0,38.6,31.4,11.7,0000.0,0003.94,0002.61,0002.26
2022-05-25 22:43:00,,0824.0,4.99,0.00,29.7,27.7,00.0,38.6,31.3,11.7,0000.0,0003.89,0002.59,0002.26
2022-05-25 22:44:00,,0824.0,5.02,0.00,29.6,27.8,00.0,38.6,31.3,11.3,0000.0,0003.91,0002.58,0002.24
2022-05-25 22:45:00,,0823.9,5.00,0.00,29.6,27.9,00.0,38.5,31.3,11.9,0000.0,0003.91,0002.58,0002.25
2022-05-25 22:46:00,,0824.0,5.00,0.00,29.6,28.0,00.0,38.5,31.4,12.6,0000.0,0003.91,0002.59,0002.25
2022-05-25 22:47:00,,0824.0,5.00,0.00,29.6,28.1,00.0,38.5,31.4,12.7,0000.0,0003.93,0002.61,0002.26
2022-05-25 22:48:00,,0824.0,5.00,0.00,29.6,28.2,00.0,38.5,31.4,12.5,0000.0,0003.87,0002.61,0002.27
2022-05-25 22:49:00,,0824.0,5.01,0.00,29.6,28.3,00.0,38.5,31.4,11.6,0000.0,0003.89,0002.62,0002.27
2022-05-25 22:50:00,,0824.0,5.01,0.00,29.6,28.4,00.0,38.5,31.4,11.6,0000.0,0004.03,0002.63,0002.27
2022-05-25 22:51:00,,0823.9,5.01,0.00,29.6,28.5,00.0,38.5,31.5,11.5,0000.0,0003.84,0002.61,0002.28
2022-05-25 22:52:00,,0823.9,5.00,0.00,29.7,28.6,00.0,38.6,31.5,11.4,0000.0,0003.56,0002.56,0002.27
2022-05-25 22:53:00,,0823.9,5.00,0.00,29.7,28.7,00.0,38.6,31.5,12.1,0000.0,0003.70,0002.59,0002.27
2022-05-25 22:54:00,,0823.9,5.01,0.00,29.7,28.7,00.0,38.6,31.6,12.2,0000.0,0003.89,0002.64,0002.27
2022-05-25 22:55:00,,0823.9,5.00,0.00,29.7,28.8,00.0,38.6,31.6,11.9,0000.0,0004.01,0002.69,0002.28
2022-05-25 22:56:00,,0823.9,5.00,0.00,29.7,28.9,00.0,38.6,31.6,11.9,0000.0,0004.07,0002.71,0002.28
2022-05-25 22:57:00,,0823.9,4.99,0.00,29.8,28.9,00.0,38.6,31.6,11.5,0000.0,0004.05,0002.69,0002.27
2022-05-25 22:58:00,,0823.9,5.00,0.00,29.8,28.9,00.0,38.6,31.7,11.5,0000.0,0004.20,0002.69,0002.25
2022-05-25 22:59:00,,0823.9,5.00,0.00,29.8,29.0,00.0,38.7,31.7,11.4,0000.0,0004.25,0002.69,0002.24
